Location: ?????
(54.9266°N, 38.5527°E)
Time: 05:06:22
(UTC+00:00)

ATLAS 5 CENTAUR R/B - Pass Details

Date: 14 April 2024
Orbit: 421 x 1169 km, 63.3° (Epoch: 20 May)

Event Time Altitude Azimuth Distance (km) Brightness Sun altitude
Rises 00:56:08 0° 309° (NW) 2,807 4.8 -12.1°
Reaches altitude 10° 00:58:10 10° 310° (NW) 2,000 4.0 -11.9°
Maximum altitude 01:02:43 84° 38° (NE) 736 2.0 -11.3°
Drops below altitude 10° 01:08:27 10° 128° (SE) 2,492 4.9 -10.6°
Sets 01:11:13 0° 129° (SE) 3,556 5.7 -10.3°
